Location: Peach Mountain Observatory
(42.3967°N, 83.9367°W)
Time: 10:30:37
(UTC-04:00)

deb Explorer IX - Pass Details

Date: 21 January 2020
Orbit: 547 x 1100 km, 38.8° (Epoch: 31 March)

Event Time Altitude Azimuth Distance (km) Brightness Sun altitude
Rises 00:47:41 0° 246° (WSW) 3,894 - -67.6°
Reaches altitude 10° 00:50:30 10° 242° (WSW) 2,949 - -67.6°
Maximum altitude 00:57:37 57° 166° (SSE) 1,256 - -67.5°
Drops below altitude 10° 01:04:22 10° 90° (E) 2,800 - -67.3°
Sets 01:06:59 0° 87° (E) 3,686 - -67.2°
